,,Stat5,,Stat1,,Stat2,,Stat3,,Stat4,,Wind1,,Wind1,
time,status,PA1M_AVG,status,PR1M_SUM,status,RH1M_AVG,status,SR1M_AVG,status,TA1M_AVG,status,W1dAve1m,status,W1sAve1m,
2003-06-11, 00:00:01,VALID,918.386,VALID,0,VALID,99.9062,VALID,0.101885,VALID,19.9262,VALID,146,VALID,0.928454,
2003-06-11, 00:01:00,VALID,918.378,VALID,0,VALID,99.9151,VALID,0.0849042,VALID,19.952,VALID,148,VALID,1.17019,
2003-06-11, 00:02:00,VALID,918.379,VALID,0,VALID,99.9036,VALID,0.0509425,VALID,19.9875,VALID,133,VALID,1.08512,
2003-06-11, 00:03:00,VALID,918.367,VALID,0,VALID,99.91,VALID,0.0849042,VALID,20.0002,VALID,140,VALID,0.827724,
2003-06-11, 00:04:00,VALID,918.365,VALID,0,VALID,99.9138,VALID,0.0849042,VALID,20.023,VALID,140,VALID,0.576172,
2003-06-11, 00:05:00,VALID,918.382,VALID,0,VALID,99.91,VALID,0.101885,VALID,20.0421,VALID,147,VALID,0.577324,
2003-06-11, 00:06:00,VALID,918.369,VALID,0,VALID,99.8985,VALID,0.0849042,VALID,20.0553,VALID,90,VALID,0.39886,
2003-06-11, 00:07:00,VALID,918.363,VALID,0,VALID,99.9087,VALID,0.101885,VALID,20.062,VALID,107,VALID,0.470954,
2003-06-11, 00:08:00,VALID,918.352,VALID,0,VALID,99.9062,VALID,0.0849042,VALID,20.0617,VALID,137,VALID,0.438101,
2003-06-11, 00:09:00,VALID,918.337,VALID,0,VALID,99.9062,VALID,0.0849042,VALID,20.0741,VALID,154,VALID,0.509816,
2003-06-11, 00:10:00,VALID,918.335,VALID,0,VALID,99.91,VALID,0.0509425,VALID,20.0838,VALID,97,VALID,0.156696,
2003-06-11, 00:11:00,VALID,918.311,VALID,0,VALID,99.9087,VALID,0.0679233,VALID,20.1233,VALID,71,VALID,0.451562,
2003-06-11, 00:12:00,VALID,918.294,VALID,0,VALID,99.9049,VALID,-0.0169808,VALID,20.1437,VALID,70,VALID,0.558799,
2003-06-11, 00:13:00,VALID,918.271,VALID,0,VALID,99.9049,VALID,0,VALID,20.1233,VALID,70,VALID,0.723741,
2003-06-11, 00:14:00,VALID,918.237,VALID,0,VALID,99.9062,VALID,0,VALID,20.1375,VALID,66,VALID,0.922297,
2003-06-11, 00:15:00,VALID,918.207,VALID,0,VALID,99.9062,VALID,0,VALID,20.1044,VALID,64,VALID,0.91582,
2003-06-11, 00:16:00,VALID,918.193,VALID,0,VALID,99.9062,VALID,0,VALID,20.0717,VALID,64,VALID,0.584375,
2003-06-11, 00:17:00,VALID,918.168,VALID,0,VALID,99.9036,VALID,0,VALID,20.0491,VALID,62,VALID,0.460537,
2003-06-11, 00:18:00,VALID,918.173,VALID,0,VALID,99.9074,VALID,0.0169808,VALID,20.0662,VALID,62,VALID,0.364844,
2003-06-11, 00:19:00,VALID,918.157,VALID,0,VALID,99.9062,VALID,0.0169808,VALID,20.0985,VALID,55,VALID,0.391406,
2003-06-11, 00:20:00,VALID,918.153,VALID,0,VALID,99.9112,VALID,0,VALID,20.0846,VALID,45,VALID,0.432644,
2003-06-11, 00:21:00,VALID,918.152,VALID,0,VALID,99.9062,VALID,0.0169808,VALID,20.0789,VALID,44,VALID,0.134079,
2003-06-11, 00:22:00,VALID,918.147,VALID,0,VALID,99.9151,VALID,0,VALID,20.0665,VALID,44,VALID,0,
2003-06-11, 00:23:00,VALID,918.153,VALID,0,VALID,99.91,VALID,0,VALID,20.0759,VALID,44,VALID,0.0174107,
2003-06-11, 00:24:00,VALID,918.155,VALID,0,VALID,99.9163,VALID,0,VALID,20.0627,VALID,44,VALID,0.204883,
2003-06-11, 00:25:00,VALID,918.14,VALID,0,VALID,99.9087,VALID,0,VALID,20.056,VALID,44,VALID,0.282051,
2003-06-11, 00:26:00,VALID,918.142,VALID,0,VALID,99.9074,VALID,0.0169808,VALID,20.0364,VALID,44,VALID,0.221217,
2003-06-11, 00:27:00,VALID,918.12,VALID,0,VALID,99.9049,VALID,0,VALID,20.0081,VALID,44,VALID,0.134663,
2003-06-11, 00:28:00,VALID,918.108,VALID,0,VALID,99.8947,VALID,0,VALID,19.9721,VALID,44,VALID,0.314303,
2003-06-11, 00:29:00,VALID,918.091,VALID,0,VALID,99.9074,VALID,0.0169808,VALID,19.9307,VALID,44,VALID,0.638281,
2003-06-11, 00:30:00,VALID,918.062,VALID,0,VALID,99.9011,VALID,0,VALID,19.8919,VALID,44,VALID,0.578125,
2003-06-11, 00:31:00,VALID,918.028,VALID,0,VALID,99.9112,VALID,0,VALID,19.8855,VALID,44,VALID,0.48097,
2003-06-11, 00:32:00,VALID,917.994,VALID,0,VALID,99.91,VALID,0,VALID,19.8857,VALID,44,VALID,0.338542,
2003-06-11, 00:33:00,VALID,917.975,VALID,0,VALID,99.9176,VALID,-0.0169808,VALID,19.8631,VALID,44,VALID,0.288429,
2003-06-11, 00:34:00,VALID,917.952,VALID,0,VALID,99.9087,VALID,0.0169808,VALID,19.8591,VALID,44,VALID,0.296242,
2003-06-11, 00:35:00,VALID,917.934,VALID,0,VALID,99.9112,VALID,0.0169808,VALID,19.8495,VALID,44,VALID,0.522852,
2003-06-11, 00:36:00,VALID,917.917,VALID,0,VALID,99.9049,VALID,0.0169808,VALID,19.7755,VALID,44,VALID,0.730009,
2003-06-11, 00:37:00,VALID,917.913,VALID,0,VALID,99.9125,VALID,0.0169808,VALID,19.7494,VALID,44,VALID,0.795025,
2003-06-11, 00:38:00,VALID,917.898,VALID,0,VALID,99.9112,VALID,0,VALID,19.7631,VALID,44,VALID,0.794071,
2003-06-11, 00:39:00,VALID,917.9,VALID,0,VALID,99.9023,VALID,0,VALID,19.7273,VALID,44,VALID,0.876645,
2003-06-11, 00:40:00,VALID,917.871,VALID,0,VALID,99.91,VALID,-0.0339617,VALID,19.705,VALID,50,VALID,1.01645,
2003-06-11, 00:41:00,VALID,917.846,VALID,0,VALID,99.9125,VALID,0.0339617,VALID,19.6891,VALID,65,VALID,1.00743,
2003-06-11, 00:42:00,VALID,917.832,VALID,0,VALID,99.9252,VALID,0,VALID,19.6466,VALID,74,VALID,0.863181,
2003-06-11, 00:43:00,VALID,917.818,VALID,0,VALID,99.9151,VALID,0,VALID,19.6243,VALID,100,VALID,0.887952,
2003-06-11, 00:44:00,VALID,917.793,VALID,0,VALID,99.9201,VALID,0,VALID,19.5793,VALID,98,VALID,0.794872,
2003-06-11, 00:45:00,VALID,917.78,VALID,0,VALID,99.9252,VALID,0,VALID,19.5528,VALID,105,VALID,0.653045,
2003-06-11, 00:46:00,VALID,917.763,VALID,0,VALID,99.924,VALID,0.0169808,VALID,19.5563,VALID,99,VALID,0.53125,
2003-06-11, 00:47:00,VALID,917.737,VALID,0,VALID,99.9379,VALID,0,VALID,19.5533,VALID,128,VALID,0.455592,
2003-06-11, 00:48:00,VALID,917.725,VALID,0,VALID,99.9443,VALID,0,VALID,19.5655,VALID,133,VALID,0.49486,
2003-06-11, 00:49:00,VALID,917.71,VALID,0,VALID,99.943,VALID,0,VALID,19.6049,VALID,147,VALID,0.753447,
2003-06-11, 00:50:00,VALID,917.703,VALID,0,VALID,99.9519,VALID,0,VALID,19.6404,VALID,146,VALID,0.762109,
2003-06-11, 00:51:00,VALID,917.695,VALID,0,VALID,99.957,VALID,0,VALID,19.6789,VALID,136,VALID,0.825041,
2003-06-11, 00:52:00,VALID,917.678,VALID,0,VALID,99.9494,VALID,-0.0169808,VALID,19.6985,VALID,114,VALID,0.540799,
2003-06-11, 00:53:00,VALID,917.654,VALID,0,VALID,99.9494,VALID,0,VALID,19.7151,VALID,107,VALID,0.492399,
2003-06-11, 00:54:00,VALID,917.633,VALID,0,VALID,99.9481,VALID,-0.0169808,VALID,19.6888,VALID,105,VALID,0.549414,
2003-06-11, 00:55:00,VALID,917.606,VALID,0,VALID,99.9647,VALID,-0.0169808,VALID,19.6856,VALID,94,VALID,0.646094,
2003-06-11, 00:56:00,VALID,917.597,VALID,0,VALID,99.9481,VALID,0,VALID,19.6762,VALID,101,VALID,0.617188,
2003-06-11, 00:57:00,VALID,917.592,VALID,0,VALID,99.9418,VALID,0,VALID,19.6757,VALID,103,VALID,0.402539,
2003-06-11, 00:58:00,VALID,917.585,VALID,0,VALID,99.9405,VALID,0,VALID,19.6595,VALID,103,VALID,0.226367,
2003-06-11, 00:59:00,VALID,917.591,VALID,0,VALID,99.9443,VALID,-0.0339617,VALID,19.6531,VALID,103,VALID,0.118666,
2003-06-11, 01:00:00,VALID,917.611,VALID,0,VALID,99.9481,VALID,0,VALID,19.6886,VALID,103,VALID,0.00105574,
2003-06-11, 01:01:00,VALID,917.605,VALID,0,VALID,99.9494,VALID,0.0169808,VALID,19.7211,VALID,103,VALID,0.000585938,
2003-06-11, 01:02:00,VALID,917.608,VALID,0,VALID,99.943,VALID,0,VALID,19.731,VALID,103,VALID,0.0584821,
2003-06-11, 01:03:00,VALID,917.604,VALID,0,VALID,99.9443,VALID,0,VALID,19.7502,VALID,103,VALID,0.175391,
2003-06-11, 01:04:00,VALID,917.596,VALID,0,VALID,99.9494,VALID,-0.0169808,VALID,19.776,VALID,155,VALID,0.358574,
2003-06-11, 01:05:00,VALID,917.587,VALID,0,VALID,99.9494,VALID,-0.0509425,VALID,19.7665,VALID,220,VALID,0.418586,
2003-06-11, 01:06:01,VALID,917.581,VALID,0,VALID,99.9405,VALID,0,VALID,19.7765,VALID,218,VALID,0.242804,
2003-06-11, 01:07:00,VALID,917.569,VALID,0,VALID,99.9354,VALID,0,VALID,19.7822,VALID,152,VALID,0.416667,
2003-06-11, 01:08:00,VALID,917.56,VALID,0,VALID,99.9468,VALID,-0.0169808,VALID,19.7628,VALID,138,VALID,0.395898,
2003-06-11, 01:09:00,VALID,917.553,VALID,0,VALID,99.9392,VALID,0,VALID,19.7566,VALID,106,VALID,0.525549,
2003-06-11, 01:10:00,VALID,917.572,VALID,0,VALID,99.9494,VALID,0,VALID,19.7308,VALID,67,VALID,0.607572,
2003-06-11, 01:11:00,VALID,917.582,VALID,0,VALID,99.9468,VALID,-0.0339617,VALID,19.7405,VALID,65,VALID,0.663061,
2003-06-11, 01:12:00,VALID,917.585,VALID,0,VALID,99.9519,VALID,-0.0679233,VALID,19.7442,VALID,64,VALID,0.646959,
2003-06-11, 01:13:01,VALID,917.57,VALID,0,VALID,99.9507,VALID,-0.0849042,VALID,19.7444,VALID,64,VALID,0.370988,
2003-06-11, 01:14:00,VALID,917.571,VALID,0,VALID,99.9621,VALID,-0.0509425,VALID,19.7211,VALID,54,VALID,0.413867,
2003-06-11, 01:15:01,VALID,917.558,VALID,0,VALID,99.9532,VALID,-0.0509425,VALID,19.7345,VALID,53,VALID,0.287224,
2003-06-11, 01:16:00,VALID,917.555,VALID,0,VALID,99.9557,VALID,-0.0849042,VALID,19.7253,VALID,55,VALID,0.0884046,
2003-06-11, 01:17:00,VALID,917.534,VALID,0,VALID,99.9634,VALID,-0.0509425,VALID,19.7189,VALID,124,VALID,0.216346,
2003-06-11, 01:18:00,VALID,917.514,VALID,0,VALID,99.9532,VALID,0,VALID,19.7184,VALID,126,VALID,0.00246711,
2003-06-11, 01:19:00,VALID,917.499,VALID,0,VALID,99.9507,VALID,-0.0169808,VALID,19.7214,VALID,132,VALID,0.351151,
2003-06-11, 01:20:00,VALID,917.491,VALID,0,VALID,99.9532,VALID,-0.0169808,VALID,19.7179,VALID,155,VALID,0.485518,
2003-06-11, 01:21:00,VALID,917.478,VALID,0,VALID,99.9557,VALID,0,VALID,19.7117,VALID,172,VALID,0.421274,
2003-06-11, 01:22:01,VALID,917.456,VALID,0,VALID,99.9532,VALID,-0.0169808,VALID,19.7022,VALID,137,VALID,0.493215,
2003-06-11, 01:23:00,VALID,917.452,VALID,0,VALID,99.9519,VALID,-0.0339617,VALID,19.6888,VALID,115,VALID,0.44351,
2003-06-11, 01:24:00,VALID,917.443,VALID,0,VALID,99.9494,VALID,-0.0339617,VALID,19.6861,VALID,84,VALID,0.561498,
2003-06-11, 01:25:00,VALID,917.423,VALID,0,VALID,99.9583,VALID,-0.0169808,VALID,19.6595,VALID,97,VALID,0.66867,
2003-06-11, 01:26:01,VALID,917.425,VALID,0,VALID,99.9608,VALID,0.0339617,VALID,19.6399,VALID,86,VALID,0.702303,
2003-06-11, 01:27:00,VALID,917.424,VALID,0,VALID,99.9659,VALID,0.0849042,VALID,19.6494,VALID,80,VALID,0.632813,
2003-06-11, 01:28:00,VALID,917.422,VALID,0,VALID,99.9507,VALID,0.0679233,VALID,19.6231,VALID,91,VALID,0.693244,
2003-06-11, 01:29:00,VALID,917.422,VALID,0,VALID,99.9672,VALID,0.0679233,VALID,19.6295,VALID,123,VALID,0.689258,
2003-06-11, 01:30:00,VALID,917.422,VALID,0,VALID,99.957,VALID,0.0509425,VALID,19.6459,VALID,99,VALID,0.927426,
2003-06-11, 01:31:00,VALID,917.431,VALID,0,VALID,99.9634,VALID,0.0679233,VALID,19.6424,VALID,107,VALID,0.968316,
2003-06-11, 01:32:01,VALID,917.426,VALID,0,VALID,99.9659,VALID,0.101885,VALID,19.6558,VALID,94,VALID,0.814611,
2003-06-11, 01:33:01,VALID,917.427,VALID,0,VALID,99.9685,VALID,0.0679233,VALID,19.6392,VALID,96,VALID,0.813867,
2003-06-11, 01:34:00,VALID,917.401,VALID,0,VALID,99.9659,VALID,0.0849042,VALID,19.6456,VALID,92,VALID,1.24004,
2003-06-11, 01:35:00,VALID,917.373,VALID,0,VALID,99.9634,VALID,0.0679233,VALID,19.626,VALID,83,VALID,0.978165,
2003-06-11, 01:36:00,VALID,917.346,VALID,0,VALID,99.9761,VALID,0.0169808,VALID,19.63,VALID,76,VALID,1.3377,
2003-06-11, 01:37:00,VALID,917.323,VALID,0,VALID,99.9672,VALID,0.101885,VALID,19.6164,VALID,84,VALID,1.2582,
2003-06-11, 01:38:00,VALID,917.299,VALID,0,VALID,99.9748,VALID,0.0509425,VALID,19.6298,VALID,88,VALID,1.30912,
2003-06-11, 01:39:00,VALID,917.289,VALID,0,VALID,99.9697,VALID,0.101885,VALID,19.6198,VALID,94,VALID,1.08277,
2003-06-11, 01:40:00,VALID,917.285,VALID,0,VALID,99.971,VALID,0.0849042,VALID,19.6201,VALID,92,VALID,1.33867,
2003-06-11, 01:41:00,VALID,917.281,VALID,0,VALID,99.9723,VALID,0.0509425,VALID,19.6079,VALID,93,VALID,1.23036,
2003-06-11, 01:42:00,VALID,917.283,VALID,0,VALID,99.9825,VALID,-0.0339617,VALID,19.5952,VALID,82,VALID,0.691406,
2003-06-11, 01:43:00,VALID,917.288,VALID,0,VALID,99.9761,VALID,-0.0339617,VALID,19.6183,VALID,108,VALID,0.855168,
2003-06-11, 01:44:01,VALID,917.297,VALID,0,VALID,99.971,VALID,0,VALID,19.6146,VALID,126,VALID,0.893092,
2003-06-11, 01:45:01,VALID,917.292,VALID,0,VALID,99.9735,VALID,0,VALID,19.6114,VALID,127,VALID,0.802426,
2003-06-11, 01:46:01,VALID,917.281,VALID,0,VALID,99.9774,VALID,-0.0169808,VALID,19.6148,VALID,149,VALID,1.13622,
2003-06-11, 01:47:00,VALID,917.286,VALID,0,VALID,99.9685,VALID,-0.0339617,VALID,19.6278,VALID,136,VALID,0.539063,
2003-06-11, 01:48:00,VALID,917.269,VALID,0,VALID,99.9735,VALID,0,VALID,19.6402,VALID,127,VALID,0.723818,
2003-06-11, 01:49:00,VALID,917.265,VALID,0,VALID,99.9799,VALID,-0.0509425,VALID,19.6409,VALID,113,VALID,0.776643,
2003-06-11, 01:50:01,VALID,917.231,VALID,0,VALID,99.9799,VALID,-0.0339617,VALID,19.6476,VALID,160,VALID,0.746595,
2003-06-11, 01:51:00,VALID,917.22,VALID,0,VALID,99.9758,VALID,-0.0679233,VALID,19.6379,VALID,130,VALID,0.627111,
2003-06-11, 01:52:01,VALID,917.212,VALID,0,VALID,99.9685,VALID,-0.0339617,VALID,19.6441,VALID,151,VALID,0.671453,
2003-06-11, 01:53:00,VALID,917.203,VALID,0,VALID,99.9809,VALID,-0.0339617,VALID,19.6441,VALID,132,VALID,0.338867,
2003-06-11, 01:54:01,VALID,917.212,VALID,0,VALID,99.9858,VALID,-0.0339617,VALID,19.6471,VALID,144,VALID,0.136949,
2003-06-11, 01:55:00,VALID,917.212,VALID,0,VALID,99.9825,VALID,-0.0169808,VALID,19.6504,VALID,141,VALID,0.26398,
2003-06-11, 01:56:00,VALID,917.216,VALID,0,VALID,99.9873,VALID,-0.0169808,VALID,19.6831,VALID,115,VALID,0.021234,
2003-06-11, 01:57:00,VALID,917.213,VALID,0,VALID,99.9672,VALID,-0.0509425,VALID,19.6801,VALID,125,VALID,0.14227,
2003-06-11, 01:58:00,VALID,917.215,VALID,0,VALID,99.9748,VALID,-0.0169808,VALID,19.696,VALID,126,VALID,0.0559211,
2003-06-11, 01:59:00,VALID,917.2,VALID,0,VALID,99.9647,VALID,-0.0169808,VALID,19.7189,VALID,126,VALID,0.132622,
2003-06-11, 02:00:01,VALID,917.188,VALID,0,VALID,99.9685,VALID,0,VALID,19.6993,VALID,127,VALID,0.194912,
2003-06-11, 02:01:01,VALID,917.158,VALID,0,VALID,99.9634,VALID,-0.0849042,VALID,19.6794,VALID,134,VALID,0.153988,
2003-06-11, 02:02:00,VALID,917.123,VALID,0,VALID,99.971,VALID,-0.0339617,VALID,19.6921,VALID,134,VALID,0.00560897,
2003-06-11, 02:03:01,VALID,917.101,VALID,0.2,VALID,99.9812,VALID,-0.0169808,VALID,19.7089,VALID,134,VALID,0.0647035,
2003-06-11, 02:04:00,VALID,917.071,VALID,0,VALID,99.9799,VALID,-0.0169808,VALID,19.7022,VALID,134,VALID,0.103766,
2003-06-11, 02:05:01,VALID,917.045,VALID,0,VALID,99.9748,VALID,-0.0339617,VALID,19.7022,VALID,134,VALID,0.0464638,
2003-06-11, 02:06:00,VALID,917.03,VALID,0,VALID,99.9847,VALID,0,VALID,19.6888,VALID,130,VALID,0.215255,
2003-06-11, 02:07:00,VALID,917.014,VALID,0,VALID,99.9799,VALID,-0.0169808,VALID,19.6729,VALID,129,VALID,0.309513,
2003-06-11, 02:08:00,VALID,917.002,VALID,0,VALID,99.9647,VALID,0,VALID,19.6536,VALID,123,VALID,0.183594,
2003-06-11, 02:09:00,VALID,917.005,VALID,0,VALID,99.971,VALID,-0.0169808,VALID,19.6275,VALID,114,VALID,0.324219,
2003-06-11, 02:10:00,VALID,917.01,VALID,0,VALID,99.9863,VALID,0,VALID,19.586,VALID,154,VALID,0.455946,
2003-06-11, 02:11:01,VALID,917.006,VALID,0,VALID,99.985,VALID,0,VALID,19.5597,VALID,171,VALID,0.59924,
2003-06-11, 02:12:01,VALID,916.994,VALID,0,VALID,99.9919,VALID,-0.0169808,VALID,19.5632,VALID,131,VALID,0.377148,
2003-06-11, 02:13:00,VALID,916.985,VALID,0,VALID,99.987,VALID,0,VALID,19.5275,VALID,131,VALID,0.528906,
2003-06-11, 02:14:00,VALID,916.964,VALID,0,VALID,99.9883,VALID,0,VALID,19.5215,VALID,134,VALID,0.251402,
2003-06-11, 02:15:00,VALID,916.938,VALID,0,VALID,99.9883,VALID,-0.0169808,VALID,19.5113,VALID,83,VALID,0.226172,
2003-06-11, 02:16:00,VALID,916.911,VALID,0,VALID,99.986,VALID,0,VALID,19.5213,VALID,44,VALID,0.592578,
2003-06-11, 02:17:00,VALID,916.888,VALID,0,VALID,99.9908,VALID,-0.0169808,VALID,19.5121,VALID,37,VALID,0.79603,
2003-06-11, 02:18:00,VALID,916.881,VALID,0,VALID,99.9954,VALID,-0.0339617,VALID,19.4962,VALID,24,VALID,0.756968,
2003-06-11, 02:19:00,VALID,916.873,VALID,0,VALID,99.9947,VALID,0,VALID,19.483,VALID,21,VALID,0.625781,
2003-06-11, 02:20:00,VALID,916.862,VALID,0,VALID,99.9908,VALID,-0.0339617,VALID,19.447,VALID,16,VALID,0.766071,
2003-06-11, 02:21:00,VALID,916.856,VALID,0,VALID,99.9967,VALID,0,VALID,19.4115,VALID,19,VALID,0.766602,
2003-06-11, 02:22:00,VALID,916.847,VALID,0,VALID,99.999,VALID,-0.0169808,VALID,19.3701,VALID,18,VALID,0.665865,
2003-06-11, 02:23:01,VALID,916.85,VALID,0,VALID,99.998,VALID,-0.0169808,VALID,19.3343,VALID,29,VALID,0.520559,
2003-06-11, 02:24:01,VALID,916.836,VALID,0,VALID,99.9967,VALID,-0.0169808,VALID,19.3539,VALID,31,VALID,0.287007,
2003-06-11, 02:25:01,VALID,916.816,VALID,0,VALID,99.9977,VALID,-0.0169808,VALID,19.3542,VALID,31,VALID,0.382011,
2003-06-11, 02:26:00,VALID,916.807,VALID,0,VALID,100,VALID,0,VALID,19.3274,VALID,33,VALID,0.423242,
2003-06-11, 02:27:00,VALID,916.805,VALID,0,VALID,100,VALID,-0.0339617,VALID,19.3346,VALID,33,VALID,0.137035,
2003-06-11, 02:28:00,VALID,916.806,VALID,0,VALID,99.999,VALID,-0.0339617,VALID,19.3217,VALID,33,VALID,0.265224,
2003-06-11, 02:29:01,VALID,916.793,VALID,0,VALID,99.999,VALID,0,VALID,19.3246,VALID,33,VALID,0.107772,
2003-06-11, 02:30:01,VALID,916.787,VALID,0,VALID,100,VALID,-0.0849042,VALID,19.3475,VALID,33,VALID,0.345017,
2003-06-11, 02:31:01,VALID,916.795,VALID,0,VALID,100,VALID,-0.0339617,VALID,19.3574,VALID,33,VALID,0.560389,
2003-06-11, 02:32:00,VALID,916.793,VALID,0,VALID,99.9977,VALID,-0.0169808,VALID,19.3802,VALID,23,VALID,0.644141,
2003-06-11, 02:33:01,VALID,916.784,VALID,0,VALID,99.999,VALID,0,VALID,19.412,VALID,14,VALID,0.924173,
2003-06-11, 02:34:00,VALID,916.794,VALID,0,VALID,100,VALID,-0.0169808,VALID,19.3927,VALID,24,VALID,1.16201,
2003-06-11, 02:35:00,VALID,916.788,VALID,0,VALID,100,VALID,0,VALID,19.3991,VALID,28,VALID,0.983373,
2003-06-11, 02:36:00,VALID,916.794,VALID,0,VALID,100,VALID,0,VALID,19.4123,VALID,18,VALID,0.782689,
2003-06-11, 02:37:01,VALID,916.801,VALID,0,VALID,100,VALID,-0.0169808,VALID,19.4058,VALID,27,VALID,1.03104,
2003-06-11, 02:38:00,VALID,916.792,VALID,0,VALID,100,VALID,0,VALID,19.4093,VALID,34,VALID,0.665015,
2003-06-11, 02:39:01,VALID,916.801,VALID,0,VALID,100,VALID,0,VALID,19.4053,VALID,48,VALID,0.811298,
2003-06-11, 02:40:01,VALID,916.798,VALID,0,VALID,99.999,VALID,-0.0169808,VALID,19.4152,VALID,55,VALID,0.592722,
2003-06-11, 02:41:00,VALID,916.804,VALID,0,VALID,99.998,VALID,0,VALID,19.3964,VALID,68,VALID,0.454527,
2003-06-11, 02:42:01,VALID,916.803,VALID,0,VALID,100,VALID,-0.0169808,VALID,19.3931,VALID,85,VALID,0.942107,
2003-06-11, 02:43:00,VALID,916.795,VALID,0,VALID,100,VALID,-0.0169808,VALID,19.3505,VALID,92,VALID,1.11599,
2003-06-11, 02:44:01,VALID,916.787,VALID,0,VALID,99.999,VALID,-0.0339617,VALID,19.3544,VALID,72,VALID,1.04749,
2003-06-11, 02:45:00,VALID,916.769,VALID,0,VALID,100,VALID,-0.0169808,VALID,19.3534,VALID,48,VALID,1.27919,
2003-06-11, 02:46:01,VALID,916.745,VALID,0,VALID,100,VALID,-0.0339617,VALID,19.383,VALID,41,VALID,1.22794,
2003-06-11, 02:47:00,VALID,916.729,VALID,0,VALID,100,VALID,-0.0169808,VALID,19.38,VALID,44,VALID,1.48203,
2003-06-11, 02:48:00,VALID,916.688,VALID,0,VALID,100,VALID,-0.0169808,VALID,19.3537,VALID,33,VALID,1.23993,
2003-06-11, 02:49:01,VALID,916.669,VALID,0,VALID,100,VALID,-0.0169808,VALID,19.3636,VALID,31,VALID,1.2704,
2003-06-11, 02:50:01,VALID,916.635,VALID,0,VALID,100,VALID,0,VALID,19.3477,VALID,49,VALID,1.00845,
2003-06-11, 02:51:01,VALID,916.604,VALID,0,VALID,99.999,VALID,-0.0339617,VALID,19.3117,VALID,66,VALID,0.842969,
2003-06-11, 02:52:01,VALID,916.556,VALID,0,VALID,100,VALID,-0.0339617,VALID,19.2963,VALID,89,VALID,1.10176,
2003-06-11, 02:53:01,VALID,916.533,VALID,0,VALID,100,VALID,-0.0339617,VALID,19.2576,VALID,74,VALID,0.995192,
2003-06-11, 02:54:00,VALID,916.499,VALID,0,VALID,100,VALID,0.0169808,VALID,19.2345,VALID,74,VALID,0.925977,
2003-06-11, 02:55:01,VALID,916.492,VALID,0,VALID,100,VALID,0,VALID,19.2152,VALID,71,VALID,0.792969,
2003-06-11, 02:56:01,VALID,916.457,VALID,0,VALID,100,VALID,-0.0509425,VALID,19.2186,VALID,16,VALID,0.745566,
2003-06-11, 02:57:01,VALID,916.458,VALID,0,VALID,100,VALID,-0.101885,VALID,19.2335,VALID,32,VALID,0.682855,
2003-06-11, 02:58:01,VALID,916.43,VALID,0,VALID,100,VALID,-0.118866,VALID,19.2399,VALID,11,VALID,0.588086,
2003-06-11, 02:59:01,VALID,916.417,VALID,0,VALID,100,VALID,-0.118866,VALID,19.2494,VALID,31,VALID,0.629687,
2003-06-11, 03:00:01,VALID,916.397,VALID,0,VALID,100,VALID,-0.101885,VALID,19.2206,VALID,59,VALID,0.687891,
2003-06-11, 03:01:01,VALID,916.374,VALID,0,VALID,100,VALID,-0.152827,VALID,19.201,VALID,55,VALID,0.415865,
2003-06-11, 03:02:01,VALID,916.35,VALID,0,VALID,100,VALID,-0.135847,VALID,19.2109,VALID,79,VALID,0.507813,
2003-06-11, 03:03:01,VALID,916.333,VALID,0,VALID,100,VALID,-0.101885,VALID,19.159,VALID,98,VALID,0.955387,
2003-06-11, 03:04:01,VALID,916.321,VALID,0,VALID,100,VALID,-0.118866,VALID,19.1039,VALID,96,VALID,0.621194,
2003-06-11, 03:05:01,VALID,916.331,VALID,0,VALID,100,VALID,-0.135847,VALID,19.0748,VALID,99,VALID,0.432227,
2003-06-11, 03:06:01,VALID,916.343,VALID,0,VALID,100,VALID,-0.101885,VALID,19.0716,VALID,128,VALID,0.506968,
2003-06-11, 03:07:01,VALID,916.374,VALID,0,VALID,100,VALID,-0.101885,VALID,19.0815,VALID,166,VALID,0.436498,
2003-06-11, 03:08:01,VALID,916.393,VALID,0,VALID,100,VALID,-0.118866,VALID,19.0878,VALID,155,VALID,0.147837,
2003-06-11, 03:09:01,VALID,916.415,VALID,0,VALID,100,VALID,-0.152827,VALID,19.1007,VALID,155,VALID,0.0314611,
2003-06-11, 03:10:01,VALID,916.428,VALID,0,VALID,100,VALID,-0.118866,VALID,19.1235,VALID,159,VALID,0.0175253,
2003-06-11, 03:11:01,VALID,916.438,VALID,0,VALID,100,VALID,-0.0679233,VALID,19.1099,VALID,281,VALID,0.452539,
2003-06-11, 03:12:01,VALID,916.42,VALID,0,VALID,100,VALID,-0.0169808,VALID,19.0995,VALID,314,VALID,0.289522,
2003-06-11, 03:13:01,VALID,916.423,VALID,0,VALID,100,VALID,0,VALID,19.0967,VALID,314,VALID,0.0102796,
2003-06-11, 03:14:01,VALID,916.396,VALID,0,VALID,100,VALID,0,VALID,19.0833,VALID,314,VALID,0,
2003-06-11, 03:15:01,VALID,916.361,VALID,0,VALID,100,VALID,-0.0169808,VALID,19.1064,VALID,314,VALID,0.0594161,
2003-06-11, 03:16:00,VALID,916.342,VALID,0,VALID,100,VALID,-0.0169808,VALID,19.1225,VALID,314,VALID,0.0318668,
2003-06-11, 03:17:00,VALID,916.332,VALID,0,VALID,100,VALID,-0.0339617,VALID,19.1223,VALID,314,VALID,0.0428735,
2003-06-11, 03:18:00,VALID,916.314,VALID,0,VALID,100,VALID,0,VALID,19.1317,VALID,314,VALID,0.180288,
2003-06-11, 03:19:00,VALID,916.298,VALID,0,VALID,100,VALID,0,VALID,19.1029,VALID,314,VALID,0.0528372,
2003-06-11, 03:20:00,VALID,916.294,VALID,0,VALID,100,VALID,-0.0169808,VALID,19.0935,VALID,314,VALID,0.382011,
2003-06-11, 03:21:00,VALID,916.303,VALID,0,VALID,100,VALID,0,VALID,19.0709,VALID,313,VALID,0.22496,
2003-06-11, 03:22:00,VALID,916.304,VALID,0,VALID,100,VALID,0,VALID,19.0545,VALID,311,VALID,0.189103,
2003-06-11, 03:23:00,VALID,916.316,VALID,0,VALID,100,VALID,-0.0169808,VALID,19.0446,VALID,311,VALID,0.0855263,
2003-06-11, 03:24:00,VALID,916.298,VALID,0,VALID,100,VALID,-0.0339617,VALID,19.0384,VALID,263,VALID,0.387952,
2003-06-11, 03:25:00,VALID,916.299,VALID,0,VALID,100,VALID,-0.0339617,VALID,19.0352,VALID,262,VALID,0.14614,
2003-06-11, 03:26:00,VALID,916.298,VALID,0,VALID,100,VALID,0,VALID,19.0384,VALID,262,VALID,0,
2003-06-11, 03:27:00,VALID,916.299,VALID,0,VALID,100,VALID,0,VALID,19.0384,VALID,262,VALID,0,
2003-06-11, 03:28:00,VALID,916.299,VALID,0,VALID,100,VALID,-0.0169808,VALID,19.0381,VALID,262,VALID,0,
2003-06-11, 03:29:00,VALID,916.283,VALID,0,VALID,100,VALID,-0.0339617,VALID,19.0287,VALID,238,VALID,0.210938,
2003-06-11, 03:30:00,VALID,916.26,VALID,0,VALID,100,VALID,-0.0339617,VALID,19.0227,VALID,150,VALID,0.431445,
2003-06-11, 03:31:00,VALID,916.245,VALID,0,VALID,100,VALID,-0.0339617,VALID,18.9833,VALID,146,VALID,0.325195,
2003-06-11, 03:32:00,VALID,916.22,VALID,0,VALID,100,VALID,-0.0679233,VALID,18.9813,VALID,145,VALID,0.258413,
2003-06-11, 03:33:00,VALID,916.205,VALID,0,VALID,100,VALID,-0.0509425,VALID,18.9416,VALID,108,VALID,0.355078,
2003-06-11, 03:34:00,VALID,916.183,VALID,0,VALID,100,VALID,-0.0509425,VALID,18.9522,VALID,63,VALID,0.710352,
2003-06-11, 03:35:00,VALID,916.187,VALID,0,VALID,100,VALID,-0.0339617,VALID,18.8962,VALID,63,VALID,0.837204,
2003-06-11, 03:36:00,VALID,916.184,VALID,0,VALID,100,VALID,-0.0679233,VALID,18.8777,VALID,60,VALID,0.73712,
2003-06-11, 03:37:00,VALID,916.203,VALID,0,VALID,100,VALID,-0.0849042,VALID,18.8519,VALID,61,VALID,0.487305,
2003-06-11, 03:38:00,VALID,916.235,VALID,0,VALID,100,VALID,-0.0679233,VALID,18.8068,VALID,62,VALID,0.167411,